TimeEDT,TemperatureF,Dew PointF,Humidity,Sea Level PressureIn,VisibilityMPH,Wind Direction,Wind SpeedMPH,Gust SpeedMPH,PrecipitationIn,Events,Conditions,WindDirDegrees,DateUTC
12:15 AM,60.4,40.8,48,29.63,10.0,South,13.8,19.6,N/A,Rain,Light Rain,190,2013-04-07 04:15:00
12:35 AM,61.7,39.0,43,29.62,10.0,South,17.3,28.8,N/A,,Overcast,190,2013-04-07 04:35:00
12:55 AM,61.3,39.4,44,29.60,10.0,SSW,17.3,25.3,N/A,,Mostly Cloudy,200,2013-04-07 04:55:00
1:15 AM,62.6,37.8,40,29.60,10.0,SSW,15.0,27.6,N/A,,Mostly Cloudy,200,2013-04-07 05:15:00
1:35 AM,60.1,42.4,52,29.63,7.0,SW,17.3,38.0,N/A,Rain,Light Rain,230,2013-04-07 05:35:00
1:55 AM,54.3,41.0,61,29.63,10.0,SW,18.4,25.3,N/A,,Overcast,230,2013-04-07 05:55:00
2:15 AM,52.9,41.4,65,29.63,10.0,SW,20.7,28.8,N/A,Rain,Light Rain,230,2013-04-07 06:15:00
2:35 AM,53.4,44.4,72,29.62,10.0,SW,17.3,26.5,N/A,,Overcast,220,2013-04-07 06:35:00
2:55 AM,54.5,44.6,69,29.60,10.0,SSW,12.7,27.6,N/A,,Overcast,210,2013-04-07 06:55:00
3:15 AM,56.1,45.5,68,29.60,10.0,SSW,17.3,21.9,N/A,,Overcast,210,2013-04-07 07:15:00
3:34 AM,56.8,45.0,64,29.59,10.0,SW,16.1,24.2,N/A,,Mostly Cloudy,220,2013-04-07 07:34:00
3:54 AM,57.0,44.6,63,29.60,10.0,SW,19.6,36.8,N/A,,Mostly Cloudy,230,2013-04-07 07:54:00
4:15 AM,54.9,44.6,68,29.61,10.0,SW,21.9,32.2,N/A,,Overcast,230,2013-04-07 08:15:00
4:35 AM,52.0,44.4,75,29.63,10.0,SW,17.3,28.8,N/A,,Overcast,230,2013-04-07 08:35:00
4:55 AM,50.9,45.5,82,29.64,10.0,WSW,19.6,25.3,N/A,,Overcast,250,2013-04-07 08:55:00
5:15 AM,48.4,44.1,85,29.65,10.0,West,18.4,26.5,N/A,,Overcast,260,2013-04-07 09:15:00
5:35 AM,46.4,43.3,89,29.67,10.0,West,13.8,21.9,N/A,,Overcast,260,2013-04-07 09:35:00
5:55 AM,46.8,43.2,87,29.69,7.0,West,18.4,25.3,N/A,,Overcast,270,2013-04-07 09:55:00
6:15 AM,47.3,42.8,84,29.71,7.0,West,15.0,25.3,N/A,,Overcast,270,2013-04-07 10:15:00
6:35 AM,46.4,41.2,82,29.73,10.0,West,13.8,20.7,N/A,,Overcast,280,2013-04-07 10:35:00
6:55 AM,44.6,40.3,85,29.74,7.0,WNW,9.2,18.4,N/A,,Overcast,290,2013-04-07 10:55:00
7:15 AM,43.7,38.7,82,29.76,10.0,WNW,11.5,17.3,N/A,,Overcast,290,2013-04-07 11:15:00
7:35 AM,42.8,37.8,82,29.78,10.0,West,8.1,-,N/A,,Overcast,270,2013-04-07 11:35:00
7:54 AM,42.1,36.9,82,29.79,10.0,West,11.5,17.3,N/A,,Overcast,280,2013-04-07 11:54:00
8:14 AM,42.1,36.5,81,29.81,10.0,WNW,8.1,16.1,N/A,,Overcast,300,2013-04-07 12:14:00
8:35 AM,41.4,36.5,83,29.82,10.0,WNW,8.1,16.1,N/A,,Overcast,300,2013-04-07 12:35:00
8:55 AM,41.9,36.7,82,29.83,10.0,WNW,8.1,17.3,N/A,,Overcast,300,2013-04-07 12:55:00
9:15 AM,41.9,36.3,81,29.84,10.0,NW,10.4,-,N/A,,Overcast,310,2013-04-07 13:15:00
9:35 AM,41.9,35.2,77,29.85,10.0,WNW,12.7,-,N/A,,Overcast,300,2013-04-07 13:35:00
9:55 AM,41.7,34.5,76,29.85,10.0,NW,11.5,20.7,N/A,,Overcast,310,2013-04-07 13:55:00
10:15 AM,41.4,34.3,76,29.86,10.0,WNW,12.7,18.4,N/A,,Overcast,300,2013-04-07 14:15:00
10:35 AM,41.5,34.7,77,29.88,10.0,NW,10.4,18.4,N/A,,Overcast,310,2013-04-07 14:35:00
10:55 AM,41.4,34.2,76,29.89,10.0,NW,10.4,17.3,N/A,,Overcast,310,2013-04-07 14:55:00
11:14 AM,41.5,34.3,76,29.90,10.0,WNW,11.5,-,N/A,,Overcast,300,2013-04-07 15:14:00
11:35 AM,41.5,34.5,76,29.91,10.0,WNW,8.1,-,N/A,,Overcast,300,2013-04-07 15:35:00
11:55 AM,41.4,34.3,76,29.92,10.0,WNW,11.5,-,N/A,,Overcast,300,2013-04-07 15:55:00
12:14 PM,41.5,34.2,75,29.94,10.0,NW,10.4,-,N/A,,Overcast,310,2013-04-07 16:14:00
12:35 PM,41.2,34.2,76,29.94,10.0,NW,10.4,-,N/A,,Overcast,320,2013-04-07 16:35:00
12:55 PM,41.2,33.4,74,29.96,10.0,NW,13.8,17.3,N/A,,Overcast,320,2013-04-07 16:55:00
1:15 PM,41.4,32.5,71,29.96,10.0,NNW,10.4,-,N/A,,Overcast,330,2013-04-07 17:15:00
1:35 PM,41.0,31.8,70,29.97,10.0,NW,10.4,17.3,N/A,,Overcast,310,2013-04-07 17:35:00
1:55 PM,41.7,32.0,68,29.97,10.0,NW,12.7,-,N/A,,Overcast,310,2013-04-07 17:55:00
2:15 PM,41.9,31.6,67,29.98,10.0,WNW,11.5,17.3,N/A,,Overcast,300,2013-04-07 18:15:00
2:35 PM,41.7,32.0,68,29.98,10.0,NNW,9.2,-,N/A,,Overcast,340,2013-04-07 18:35:00
2:54 PM,43.5,32.0,64,29.98,10.0,North,12.7,17.3,N/A,,Scattered Clouds,350,2013-04-07 18:54:00
3:15 PM,45.0,32.0,60,29.98,10.0,NNW,9.2,-,N/A,,Clear,330,2013-04-07 19:15:00
3:35 PM,44.2,31.8,62,29.99,10.0,North,9.2,17.3,N/A,,Clear,350,2013-04-07 19:35:00
3:55 PM,44.1,32.0,63,29.99,10.0,North,11.5,16.1,N/A,,Clear,350,2013-04-07 19:55:00
4:15 PM,43.5,31.6,63,29.99,10.0,North,9.2,16.1,N/A,,Clear,350,2013-04-07 20:15:00
4:35 PM,43.9,31.6,62,29.99,10.0,NW,11.5,18.4,N/A,,Clear,320,2013-04-07 20:35:00
4:55 PM,43.9,31.6,62,29.98,10.0,North,9.2,-,N/A,,Clear,360,2013-04-07 20:55:00
5:15 PM,43.3,30.9,62,29.99,10.0,North,8.1,-,N/A,,Clear,360,2013-04-07 21:15:00
5:35 PM,43.9,31.1,61,29.99,10.0,NNE,8.1,-,N/A,,Clear,20,2013-04-07 21:35:00
5:55 PM,43.7,30.9,61,29.99,10.0,NNE,4.6,-,N/A,,Clear,30,2013-04-07 21:55:00
6:15 PM,43.9,31.1,61,29.99,10.0,North,9.2,-,N/A,,Clear,10,2013-04-07 22:15:00
6:34 PM,43.7,31.1,61,29.99,10.0,NNE,4.6,-,N/A,,Clear,20,2013-04-07 22:34:00
6:55 PM,43.7,31.1,61,29.99,10.0,North,4.6,-,N/A,,Clear,10,2013-04-07 22:55:00
7:15 PM,43.2,30.9,62,29.99,10.0,NNE,3.5,-,N/A,,Clear,30,2013-04-07 23:15:00
7:35 PM,43.0,30.9,62,29.99,10.0,NE,3.5,-,N/A,,Clear,50,2013-04-07 23:35:00
7:55 PM,42.8,31.1,63,29.99,10.0,Calm,Calm,-,N/A,,Clear,0,2013-04-07 23:55:00
8:15 PM,42.6,30.9,63,29.99,10.0,Calm,Calm,-,N/A,,Clear,0,2013-04-08 00:15:00
8:35 PM,42.1,30.9,65,29.98,10.0,Calm,Calm,-,N/A,,Clear,0,2013-04-08 00:35:00
8:55 PM,41.9,30.9,65,29.98,10.0,Calm,Calm,-,N/A,,Clear,0,2013-04-08 00:55:00
9:14 PM,38.7,31.6,76,29.98,10.0,NE,3.5,-,N/A,,Clear,40,2013-04-08 01:14:00
9:35 PM,39.2,30.9,72,29.99,10.0,Calm,Calm,-,N/A,,Clear,0,2013-04-08 01:35:00
9:55 PM,37.6,31.1,77,29.99,10.0,Calm,Calm,-,N/A,,Clear,0,2013-04-08 01:55:00
10:15 PM,36.3,31.1,81,30.00,10.0,Calm,Calm,-,N/A,,Clear,0,2013-04-08 02:15:00
10:35 PM,36.1,30.6,80,29.99,10.0,Calm,Calm,-,N/A,,Clear,0,2013-04-08 02:35:00
10:55 PM,37.8,30.2,74,29.99,10.0,ENE,3.5,-,N/A,,Clear,60,2013-04-08 02:55:00
11:15 PM,36.5,30.4,78,29.99,10.0,ENE,4.6,-,N/A,,Clear,70,2013-04-08 03:15:00
11:35 PM,37.9,30.4,74,29.99,10.0,ENE,3.5,-,N/A,,Clear,70,2013-04-08 03:35:00
11:55 PM,37.8,30.2,74,29.99,10.0,East,4.6,-,N/A,,Clear,100,2013-04-08 03:55:00